Poplar Bluff, MO

9:02 PM CST on December 13, 2017 (GMT -0600)
Poplar Bluff Municipal

Weather History for KPOF - April, 2012

Change the Weather History Date:

Thursday, April 5, 2012

  Actual Average Record
Temperature  
Mean Temperature 62 °F -  
Max Temperature 72 °F 62 °F 85 °F (1954)
Min Temperature 53 °F 42 °F 20 °F (1921)
Degree Days  
Heating Degree Days 3    
Growing Degree Days 12 (Base 50)    
Moisture  
Dew Point 56 °F    
Average Humidity 80    
Maximum Humidity 97    
Minimum Humidity 60    
Precipitation  
Precipitation 0.00 in - - ()
Sea Level Pressure  
Sea Level Pressure 29.76 in    
Wind  
Wind Speed 6 mph (NNE)    
Max Wind Speed 18 mph    
Max Gust Speed 24 mph    
Visibility 9 miles    
Events Thunderstorm    
Averages and records for this station are not official NWS values.
T = Trace of Precipitation, MM = Missing Value Source: NWS Daily Summary

Daily Weather History Graph

Daily Weather History Graph

Search for Another Location

Airport or City:

Trip Planner

Search our weather history database for the weather conditions in past years. The results will help you decide how hot, cold, wet, or windy it might be!

Date:

Astronomy

Apr. 05, 2012 Rise Set
Actual Time 6:40 AM CDT 7:27 PM CDT
Civil Twilight 6:14 AM CDT 7:53 PM CDT
Nautical Twilight 5:43 AM CDT 8:24 PM CDT
Astronomical Twilight 5:11 AM CDT 8:56 PM CDT
Moon 6:33 PM CDT (4/5) 5:35 AM CDT (4/5)
Length of Visible Light 13h 39m
Length of Day
12h 46m
Waxing Gibbous, 98% of the Moon is Illuminated
Apr 5
Waxing Gibbous
Apr 6
Full
Apr 13
Last Quarter
Apr 21
New
Apr 29
First Quarter

Hourly Weather History & Observations

Time (CDT) Temp. Dew Point Humidity Pressure Visibility Wind Dir Wind Speed Gust Speed Precip Events Conditions
12:53 AM 61.0 °F 59.0 °F 93% 29.68 in 8.0 mi NNW 3.5 mph - N/A   Clear
1:53 AM 61.0 °F 59.0 °F 93% 29.69 in 6.0 mi Calm Calm - N/A   Mostly Cloudy
2:53 AM 60.1 °F 57.9 °F 93% 29.67 in 9.0 mi NW 3.5 mph - N/A   Scattered Clouds
3:26 AM 60.8 °F 59.0 °F 94% 29.69 in 10.0 mi NW 6.9 mph - N/A   Mostly Cloudy
3:53 AM 61.0 °F 59.0 °F 93% 29.67 in 10.0 mi Calm Calm - N/A   Overcast
4:27 AM 60.8 °F 57.2 °F 88% 29.68 in 10.0 mi Calm Calm - N/A   Scattered Clouds
4:53 AM 57.9 °F 55.9 °F 93% 29.68 in 10.0 mi Calm Calm - N/A   Clear
5:53 AM 57.0 °F 55.0 °F 93% 29.70 in 8.0 mi NNE 3.5 mph - N/A   Clear
6:53 AM 55.9 °F 55.0 °F 97% 29.72 in 3.0 mi Calm Calm - N/A   Scattered Clouds
7:31 AM 60.8 °F 57.2 °F 88% 29.74 in 10.0 mi NNW 5.8 mph - N/A   Mostly Cloudy
7:53 AM 60.1 °F 57.0 °F 90% 29.74 in 10.0 mi NNW 6.9 mph - N/A   Overcast
8:19 AM 60.8 °F 57.2 °F 88% 29.74 in 10.0 mi North 6.9 mph - N/A   Mostly Cloudy
8:53 AM 63.0 °F 57.9 °F 84% 29.72 in 10.0 mi NNE 9.2 mph - N/A   Partly Cloudy
9:18 AM 62.6 °F 57.2 °F 82% 29.73 in 10.0 mi NNE 11.5 mph - N/A   Mostly Cloudy
9:53 AM 63.0 °F 57.0 °F 81% 29.73 in 10.0 mi NE 8.1 mph - N/A   Overcast
10:53 AM 66.0 °F 57.9 °F 75% 29.75 in 10.0 mi NNE 8.1 mph - N/A   Overcast
11:53 AM 66.9 °F 57.9 °F 73% 29.76 in 10.0 mi NNE 5.8 mph - N/A   Overcast
12:53 PM 70.0 °F 57.9 °F 65% 29.74 in 10.0 mi NE 8.1 mph - N/A   Overcast
1:21 PM 71.6 °F 57.2 °F 60% 29.75 in 10.0 mi ENE 8.1 mph - N/A   Mostly Cloudy
1:53 PM 71.1 °F 57.9 °F 63% 29.73 in 10.0 mi NE 13.8 mph 19.6 mph N/A Thunderstorm Partly Cloudy
2:24 PM 69.8 °F 57.2 °F 64% 29.74 in 10.0 mi NE 15.0 mph 21.9 mph N/A Thunderstorm Mostly Cloudy
2:53 PM 66.0 °F 57.0 °F 73% 29.76 in 9.0 mi NNE 12.7 mph - N/A Thunderstorm Thunderstorm
3:00 PM 64.4 °F 57.2 °F 77% 29.77 in 9.0 mi North 16.1 mph - N/A   Mostly Cloudy
3:11 PM 64.4 °F 55.4 °F 73% 29.78 in 8.0 mi North 13.8 mph - N/A Thunderstorm Mostly Cloudy
3:26 PM 64.4 °F 55.4 °F 73% 29.79 in 8.0 mi NNE 12.7 mph - N/A   Overcast
3:53 PM 63.0 °F 55.9 °F 78% 29.78 in 7.0 mi NNE 10.4 mph - N/A   Overcast
4:53 PM 63.0 °F 55.0 °F 75% 29.81 in 9.0 mi North 12.7 mph - N/A   Overcast
5:53 PM 61.0 °F 53.1 °F 75% 29.83 in 9.0 mi North 18.4 mph 24.2 mph N/A   Overcast
6:53 PM 60.1 °F 53.1 °F 78% 29.86 in 10.0 mi NNE 15.0 mph - N/A   Overcast
7:53 PM 60.1 °F 52.0 °F 75% 29.87 in 10.0 mi NNE 11.5 mph - N/A   Overcast
9:53 PM 57.0 °F 48.0 °F 72% 29.93 in 10.0 mi North 8.1 mph - N/A   Clear
10:53 PM 53.1 °F 48.0 °F 83% 29.94 in 10.0 mi North 5.8 mph - N/A   Clear
11:53 PM 54.0 °F 44.1 °F 69% 29.96 in 10.0 mi North 6.9 mph - N/A   Clear